NBT789 ESGG-ESSA

Flight info

Callsign NBT789
Flight time 0h 42m
Altitude 29000
Route LABAN N873 ARS T317 ELTOK
Aircraft B789/H-SDE1E2E3FGHIJ2J3J4J5M1RWXY/LB1D1

Departure

Time 2026-05-04 17:29
Airport Göteborg Landvetter Airport (ESGG)

Arrival

Time 2026-05-04 18:11
Airport Stockholm-Arlanda Airport (ESSA)
Time Latitude Longitude Altitude Speed Heading
2026-05-04 17:07 57.66467 12.29045 521 ft 0 kts 116°
2026-05-04 17:19 57.66475 12.28979 521 ft 2 kts 72°
2026-05-04 17:20 57.66451 12.28932 521 ft 2 kts 30°
2026-05-04 17:20 57.66431 12.28912 521 ft 2 kts 27°
2026-05-04 17:20 57.66430 12.28911 521 ft 0 kts 27°
2026-05-04 17:23 57.66451 12.28931 521 ft 5 kts 27°
2026-05-04 17:23 57.66523 12.28956 521 ft 6 kts 347°
2026-05-04 17:24 57.66557 12.28955 521 ft 3 kts 12°
2026-05-04 17:24 57.66607 12.28954 521 ft 5 kts 312°
2026-05-04 17:25 57.66641 12.28868 521 ft 5 kts 318°
2026-05-04 17:25 57.66672 12.28853 521 ft 2 kts
2026-05-04 17:26 57.66756 12.28924 521 ft 11 kts 25°
2026-05-04 17:26 57.67076 12.29213 521 ft 21 kts 26°
2026-05-04 17:27 57.67334 12.29451 521 ft 21 kts 26°
2026-05-04 17:27 57.67411 12.29467 521 ft 2 kts 303°
2026-05-04 17:28 57.67458 12.29219 521 ft 12 kts 269°
2026-05-04 17:29 57.67237 12.28849 520 ft 59 kts 206°
2026-05-04 17:29 57.64762 12.26697 1260 ft 160 kts 208°
2026-05-04 17:30 57.61379 12.24723 2809 ft 227 kts 160°
2026-05-04 17:31 57.58728 12.28015 4575 ft 232 kts 155°
2026-05-04 17:31 57.57347 12.36516 6198 ft 284 kts 66°
2026-05-04 17:32 57.59212 12.43242 7531 ft 293 kts 42°
2026-05-04 17:33 57.63806 12.51069 9767 ft 308 kts 42°
2026-05-04 17:33 57.65289 12.54086 10142 ft 326 kts 42°
2026-05-04 17:34 57.70456 12.64033 10845 ft 381 kts 41°
2026-05-04 17:34 57.72325 12.67677 11149 ft 394 kts 41°
2026-05-04 17:35 57.77754 12.78261 11909 ft 352 kts 40°
2026-05-04 17:35 57.81133 12.84822 13116 ft 356 kts 41°
2026-05-04 17:35 57.82857 12.88195 13791 ft 360 kts 41°
2026-05-04 17:36 57.84601 12.91619 14395 ft 364 kts 41°
2026-05-04 17:36 57.86363 12.95078 15013 ft 368 kts 40°
2026-05-04 17:36 57.88141 12.98565 15626 ft 370 kts 40°
2026-05-04 17:36 57.89928 13.02080 16263 ft 374 kts 40°
2026-05-04 17:37 57.91731 13.05631 16920 ft 377 kts 40°
2026-05-04 17:37 57.93548 13.09220 17592 ft 380 kts 40°
2026-05-04 17:37 57.95381 13.12841 18252 ft 384 kts 40°
2026-05-04 17:37 57.97230 13.16501 18847 ft 387 kts 40°
2026-05-04 17:38 57.99095 13.20199 19453 ft 391 kts 40°
2026-05-04 17:38 58.00981 13.23946 20073 ft 395 kts 40°
2026-05-04 17:38 58.02855 13.27673 20690 ft 398 kts 40°
2026-05-04 17:38 58.04765 13.31480 21331 ft 400 kts 40°
2026-05-04 17:39 58.08600 13.39142 22650 ft 402 kts 40°
2026-05-04 17:39 58.10523 13.42994 23331 ft 402 kts 40°
2026-05-04 17:39 58.12443 13.46845 23914 ft 402 kts 40°
2026-05-04 17:40 58.14356 13.50689 24492 ft 401 kts 41°
2026-05-04 17:40 58.16263 13.54528 25081 ft 399 kts 41°
2026-05-04 17:40 58.18169 13.58371 25689 ft 398 kts 41°
2026-05-04 17:40 58.20058 13.62185 26298 ft 396 kts 41°
2026-05-04 17:41 58.21939 13.65991 26929 ft 394 kts 41°
2026-05-04 17:41 58.23809 13.69779 27570 ft 392 kts 41°
2026-05-04 17:41 58.25669 13.73555 28220 ft 390 kts 41°
2026-05-04 17:41 58.27526 13.77329 28784 ft 392 kts 41°
2026-05-04 17:42 58.29433 13.81195 28800 ft 410 kts 41°
2026-05-04 17:42 58.31400 13.85198 28811 ft 429 kts 42°
2026-05-04 17:42 58.33477 13.89450 28815 ft 447 kts 42°
2026-05-04 17:42 58.35619 13.93849 28804 ft 455 kts 43°
2026-05-04 17:43 58.39876 14.02600 28795 ft 447 kts 42°
2026-05-04 17:43 58.44085 14.11261 28794 ft 447 kts 42°
2026-05-04 17:44 58.48301 14.19992 28788 ft 447 kts 42°
2026-05-04 17:44 58.52520 14.28749 28783 ft 448 kts 42°
2026-05-04 17:45 58.56745 14.37558 28772 ft 448 kts 42°
2026-05-04 17:45 58.60949 14.46355 28773 ft 448 kts 42°
2026-05-04 17:46 58.65155 14.55192 28776 ft 448 kts 42°
2026-05-04 17:46 58.69359 14.64056 28779 ft 449 kts 42°
2026-05-04 17:47 58.73534 14.72894 28776 ft 450 kts 43°
2026-05-04 17:47 58.77741 14.81836 28773 ft 449 kts 43°
2026-05-04 17:48 58.81937 14.90788 28763 ft 450 kts 43°
2026-05-04 17:48 58.86130 14.99768 28765 ft 450 kts 43°
2026-05-04 17:49 58.90319 15.08775 28738 ft 450 kts 43°
2026-05-04 17:49 58.94503 15.17807 28743 ft 451 kts 43°
2026-05-04 17:50 58.96603 15.22359 28501 ft 454 kts 43°
2026-05-04 17:50 58.98494 15.27176 28266 ft 455 kts 52°
2026-05-04 17:50 59.00283 15.32225 27991 ft 454 kts 50°
2026-05-04 17:50 59.02071 15.37282 27721 ft 455 kts 51°
2026-05-04 17:51 59.03811 15.42429 27458 ft 456 kts 52°
2026-05-04 17:51 59.05543 15.47587 27197 ft 456 kts 52°
2026-05-04 17:51 59.07305 15.52735 26951 ft 457 kts 51°
2026-05-04 17:51 59.09077 15.57888 26694 ft 458 kts 51°
2026-05-04 17:52 59.10837 15.63074 26445 ft 460 kts 52°
2026-05-04 17:52 59.12590 15.68279 26196 ft 460 kts 52°
2026-05-04 17:52 59.14352 15.73494 25943 ft 461 kts 52°
2026-05-04 17:52 59.16118 15.78716 25705 ft 462 kts 52°
2026-05-04 17:53 59.17887 15.83969 25468 ft 463 kts 52°
2026-05-04 17:53 59.19653 15.89233 25224 ft 464 kts 52°
2026-05-04 17:53 59.21419 15.94511 24984 ft 465 kts 52°
2026-05-04 17:53 59.23163 15.99726 24753 ft 465 kts 52°
2026-05-04 17:54 59.24939 16.05027 24517 ft 465 kts 50°
2026-05-04 17:54 59.26643 16.10442 24294 ft 471 kts 59°
2026-05-04 17:54 59.28021 16.16298 24067 ft 475 kts 64°
2026-05-04 17:54 59.29261 16.22285 23833 ft 475 kts 65°
2026-05-04 17:55 59.30449 16.28338 23608 ft 477 kts 66°
2026-05-04 17:55 59.31619 16.34423 23346 ft 477 kts 66°
2026-05-04 17:55 59.32786 16.40541 22800 ft 480 kts 66°
2026-05-04 17:55 59.33949 16.46665 22260 ft 477 kts 67°
2026-05-04 17:56 59.35104 16.52754 21708 ft 475 kts 67°
2026-05-04 17:56 59.36234 16.58720 21203 ft 473 kts 67°
2026-05-04 17:56 59.37378 16.64769 20686 ft 473 kts 67°
2026-05-04 17:56 59.38521 16.70815 20182 ft 472 kts 67°
2026-05-04 17:57 59.39660 16.76842 19693 ft 469 kts 67°
2026-05-04 17:57 59.40792 16.82839 19188 ft 465 kts 67°
2026-05-04 17:57 59.41912 16.88773 18714 ft 461 kts 67°
2026-05-04 17:57 59.43022 16.94654 18237 ft 457 kts 67°
2026-05-04 17:58 59.44124 17.00489 17727 ft 453 kts 67°
2026-05-04 17:58 59.45203 17.06190 17189 ft 448 kts 67°
2026-05-04 17:58 59.46289 17.11896 16661 ft 443 kts 67°
2026-05-04 17:58 59.47367 17.17543 16135 ft 439 kts 67°
2026-05-04 17:59 59.48439 17.23140 15615 ft 434 kts 67°
2026-05-04 17:59 59.49502 17.28674 15110 ft 430 kts 67°
2026-05-04 17:59 59.51609 17.39589 13971 ft 422 kts 67°
2026-05-04 18:00 59.52650 17.44957 13352 ft 416 kts 67°
2026-05-04 18:00 59.53674 17.50228 12674 ft 408 kts 67°
2026-05-04 18:00 59.54681 17.55401 12013 ft 401 kts 67°
2026-05-04 18:00 59.55671 17.60492 11375 ft 394 kts 67°
2026-05-04 18:01 59.56638 17.65461 10739 ft 388 kts 67°
2026-05-04 18:01 59.57595 17.70377 10116 ft 381 kts 67°
2026-05-04 18:01 59.58183 17.73396 9728 ft 378 kts 67°
2026-05-04 18:02 59.59838 17.81927 8546 ft 369 kts 67°
2026-05-04 18:02 59.60749 17.86660 7879 ft 366 kts 67°
2026-05-04 18:02 59.61643 17.91338 7237 ft 363 kts 67°
2026-05-04 18:02 59.62524 17.95996 6607 ft 359 kts 67°
2026-05-04 18:03 59.63379 18.00548 5997 ft 356 kts 67°
2026-05-04 18:03 59.64236 18.05145 5350 ft 353 kts 67°
2026-05-04 18:03 59.65387 18.09345 4691 ft 345 kts 45°
2026-05-04 18:03 59.67234 18.12070 4036 ft 317 kts 20°
2026-05-04 18:04 59.69229 18.13453 3371 ft 293 kts 11°
2026-05-04 18:04 59.71129 18.14423 2951 ft 272 kts
2026-05-04 18:04 59.74707 18.16063 2495 ft 255 kts
2026-05-04 18:05 59.76375 18.16831 2497 ft 240 kts
2026-05-04 18:05 59.77963 18.17591 2514 ft 232 kts
2026-05-04 18:05 59.79534 18.18354 2509 ft 233 kts
2026-05-04 18:05 59.81116 18.18899 2479 ft 225 kts 352°
2026-05-04 18:06 59.82991 18.15054 2487 ft 206 kts 275°
2026-05-04 18:06 59.82994 18.12211 2504 ft 205 kts 268°
2026-05-04 18:06 59.82931 18.09401 2508 ft 203 kts 268°
2026-05-04 18:07 59.82557 18.06758 2480 ft 208 kts 239°
2026-05-04 18:07 59.81559 18.04613 2502 ft 211 kts 228°
2026-05-04 18:07 59.80534 18.02666 2505 ft 197 kts 227°
2026-05-04 18:07 59.79370 18.01385 2485 ft 188 kts 205°
2026-05-04 18:08 59.78117 18.00753 2489 ft 184 kts 200°
2026-05-04 18:08 59.76873 18.00255 2508 ft 180 kts 199°
2026-05-04 18:08 59.75630 17.99793 2362 ft 182 kts 198°
2026-05-04 18:08 59.74407 17.99353 2114 ft 174 kts 198°
2026-05-04 18:09 59.72147 17.98540 1667 ft 152 kts 198°
2026-05-04 18:09 59.70303 17.97859 1303 ft 138 kts 200°
2026-05-04 18:10 59.69372 17.97513 1105 ft 134 kts 197°
2026-05-04 18:10 59.68459 17.97180 915 ft 134 kts 197°
2026-05-04 18:10 59.67534 17.96827 694 ft 136 kts 194°
2026-05-04 18:10 59.66602 17.96506 492 ft 136 kts 192°
2026-05-04 18:11 59.65677 17.96191 299 ft 136 kts 195°
2026-05-04 18:11 59.64752 17.95848 138 ft 135 kts 196°
2026-05-04 18:11 59.63949 17.95542 115 ft 95 kts 189°
2026-05-04 18:11 59.63473 17.95357 125 ft 41 kts 202°
2026-05-04 18:12 59.63279 17.95098 124 ft 19 kts 222°
2026-05-04 18:12 59.63241 17.94979 125 ft 6 kts 264°
2026-05-04 18:12 59.63243 17.94968 125 ft 0 kts 284°
2026-05-04 18:12 59.63252 17.94944 128 ft 6 kts 308°
2026-05-04 18:13 59.63272 17.94919 128 ft 4 kts 340°
2026-05-04 18:13 59.63319 17.94918 124 ft 12 kts
2026-05-04 18:13 59.63592 17.95016 119 ft 24 kts 10°
2026-05-04 18:14 59.63768 17.95077 112 ft 27 kts 11°
2026-05-04 18:14 59.63955 17.95145 113 ft 28 kts 10°
2026-05-04 18:14 59.64151 17.95216 110 ft 29 kts 11°
2026-05-04 18:15 59.64543 17.95359 110 ft 23 kts 11°
2026-05-04 18:15 59.64865 17.95477 111 ft 24 kts
2026-05-04 18:15 59.65017 17.95515 117 ft 20 kts 358°
2026-05-04 18:16 59.65139 17.95465 122 ft 16 kts 346°
2026-05-04 18:16 59.65239 17.95412 125 ft 14 kts 345°
2026-05-04 18:16 59.65321 17.95369 133 ft 11 kts 345°
2026-05-04 18:17 59.65476 17.95286 129 ft 13 kts 345°
2026-05-04 18:17 59.65572 17.95233 128 ft 15 kts 344°
2026-05-04 18:17 59.65745 17.95096 127 ft 8 kts 296°
2026-05-04 18:18 59.65748 17.95034 128 ft 4 kts 268°
2026-05-04 18:18 59.65743 17.94972 129 ft 6 kts 259°
2026-05-04 18:18 59.65732 17.94879 125 ft 8 kts 256°
2026-05-04 18:18 59.65717 17.94762 125 ft 9 kts 256°
2026-05-04 18:19 59.65684 17.94500 128 ft 10 kts 256°
2026-05-04 18:19 59.65658 17.94298 129 ft 24 kts 256°
2026-05-04 18:19 59.65615 17.93960 119 ft 20 kts 256°
2026-05-04 18:20 59.65588 17.93875 118 ft 1 kts 199°
2026-05-04 18:20 59.65566 17.93874 115 ft 4 kts 174°
2026-05-04 18:20 59.65533 17.93886 116 ft 6 kts 168°
2026-05-04 18:20 59.65487 17.93908 117 ft 8 kts 166°
2026-05-04 18:21 59.65453 17.93924 115 ft 2 kts 172°
2026-05-04 18:21 59.65445 17.93920 118 ft 2 kts 190°
2026-05-04 18:21 59.65432 17.93909 116 ft 1 kts 214°
2026-05-04 18:21 59.65418 17.93867 113 ft 7 kts 241°
2026-05-04 18:22 59.65401 17.93794 113 ft 0 kts 247°
2026-05-04 18:22 59.65401 17.93793 113 ft 0 kts 247°